Wind_Speed
48 44 43 43 43 43 42 37 34 31 27 24 24 23 22 22 21 20 18 17 19 20 18 17 17 18 18 16 17 18 18 17 15 13 10 8 8 7 6 5 5 4 4 5 5 4 3 2 2 3 4 4 4 5 5 5 6 6 7 8 8 9 10
52 47 45 47 46 44 41 35 31 29 26 24 24 23 22 22 21 20 19 19 20 21 20 20 19 19 20 18 18 19 20 19 18 16 13 11 10 9 7 5 4 3 3 4 5 4 3 2 2 2 3 3 3 3 3 3 4 5 6 7 7 8 8
55 52 49 48 46 43 40 35 27 23 23 23 23 23 22 22 22 21 21 21 21 21 23 22 21 21 22 20 19 20 21 21 20 18 16 14 13 11 9 7 5 3 2 2 3 3 2 1 1 1 1 2 3 3 2 2 2 3 4 6 6 7 7
57 55 53 50 48 44 41 35 27 23 27 28 25 24 23 22 20 20 21 22 21 24 25 24 23 23 23 22 22 21 22 22 22 21 20 18 16 14 11 9 7 5 4 2 1 2 1 0 1 2 2 1 1 1 1 1 2 2 3 4 5 6 6
58 57 56 53 49 46 42 40 37 36 37 34 28 24 22 21 21 21 21 19 19 21 23 24 25 26 25 25 25 24 24 24 25 24 23 21 19 17 14 12 10 8 7 4 2 1 0 1 2 3 3 3 2 1 2 2 3 3 3 4 4 5 6
58 58 57 54 50 47 45 43 43 42 40 37 33 28 25 23 22 21 18 17 18 20 23 26 28 28 28 28 27 26 26 26 27 27 26 25 23 20 18 16 14 12 10 8 6 4 3 2 3 4 4 4 4 4 4 5 5 5 6 6 6 7 8
59 59 57 55 52 49 47 45 44 42 40 37 34 31 27 23 21 19 17 18 22 25 28 32 32 30 30 30 29 28 27 26 27 28 29 28 26 24 22 20 17 16 14 11 9 8 7 5 5 5 5 6 5 5 6 6 7 7 7 8 8 8 9
61 60 59 56 53 50 49 48 46 44 41 37 33 30 27 25 22 18 17 21 26 29 32 34 33 31 31 31 31 29 27 27 27 28 29 29 29 28 26 23 21 19 17 15 12 11 10 8 7 7 7 7 7 7 8 8 9 9 9 9 9 9 9
62 62 60 57 54 52 50 49 47 45 43 40 35 31 27 27 27 23 21 25 28 31 35 36 34 33 33 33 32 31 29 27 27 27 28 29 29 29 28 26 24 22 20 17 16 14 13 12 10 9 9 9 9 9 10 11 11 11 11 11 10 9 9
63 63 61 59 56 53 51 50 48 46 44 42 38 34 30 29 31 30 28 28 26 27 31 36 37 35 34 34 34 33 31 29 28 28 28 29 29 30 30 29 27 25 23 21 19 18 16 15 13 12 11 11 10 11 12 13 13 13 13 13 12 10 10
65 63 62 59 57 55 53 51 49 47 45 43 40 38 35 33 32 29 28 28 28 27 29 36 39 37 35 35 35 34 33 30 29 28 28 29 30 30 30 30 30 29 27 25 24 22 21 19 17 15 14 13 13 13 14 14 14 14 14 14 14 12 10
66 65 63 61 58 56 54 52 50 48 46 45 43 42 42 44 42 37 34 33 32 34 37 40 41 38 36 36 35 34 32 30 29 28 27 27 29 30 31 32 32 31 30 29 28 26 25 23 21 19 17 16 16 15 15 15 15 15 15 15 15 13 11
68 67 65 62 60 58 56 54 52 50 48 46 45 45 47 50 50 49 47 46 44 45 45 43 42 41 39 37 34 32 31 30 28 28 26 26 27 28 30 32 32 32 32 31 31 29 28 27 24 22 21 19 19 18 18 17 17 17 16 16 15 14 12
69 68 66 64 62 59 57 56 54 52 50 48 47 47 47 49 50 51 52 53 54 54 52 48 45 42 40 38 34 32 31 29 27 26 25 26 26 26 27 28 30 31 32 32 32 31 30 29 27 25 24 23 22 21 20 19 19 18 17 17 16 15 13
70 69 67 65 63 61 59 58 56 54 52 50 48 48 48 48 49 50 51 52 54 55 55 54 52 47 43 39 36 34 31 28 26 25 25 25 26 25 25 25 26 27 29 30 31 31 31 30 29 28 26 25 24 23 23 22 21 20 19 18 17 16 14
72 71 69 67 65 63 61 59 57 55 53 52 50 49 48 48 48 49 50 51 51 52 53 54 53 52 49 44 40 36 32 29 28 26 26 26 26 25 24 23 23 24 25 27 28 29 30 30 29 29 27 26 26 25 25 24 22 21 20 19 18 17 16
74 73 72 70 68 66 63 61 59 57 55 53 51 50 49 49 48 49 49 50 50 50 50 50 50 52 52 49 44 40 35 33 31 28 27 26 25 25 23 22 22 22 24 25 26 28 29 29 29 28 28 28 28 27 27 26 24 23 22 21 20 19 17
77 76 74 72 71 69 67 64 62 59 57 55 54 52 50 49 49 49 49 50 49 49 48 48 48 50 53 50 46 43 40 37 34 31 30 28 26 24 22 20 20 22 23 25 26 28 29 29 29 28 28 29 29 29 28 27 26 24 23 23 22 21 19
80 79 77 75 74 72 70 68 66 63 61 59 57 55 53 52 51 50 50 50 50 49 48 47 46 50 53 51 47 45 43 40 36 34 34 31 28 26 26 25 23 22 23 24 26 28 29 31 31 30 29 29 30 30 30 29 27 26 25 25 24 22 21
84 83 81 79 78 76 74 72 70 68 65 63 61 58 57 55 53 52 52 51 51 50 49 47 46 48 52 52 49 46 44 42 39 37 35 33 31 29 30 30 29 27 24 22 25 29 30 31 33 32 31 31 31 31 31 30 29 28 27 27 25 24 22
89 87 85 83 81 80 78 76 74 72 70 67 65 62 60 59 57 55 54 53 52 51 50 48 46 47 50 53 51 47 45 45 43 39 35 34 34 33 32 31 30 30 31 29 27 28 29 30 33 35 35 34 33 32 32 31 30 29 28 27 26 25 23
93 91 89 87 85 83 82 80 78 76 74 71 68 66 64 62 60 58 56 55 54 53 51 49 48 46 47 51 53 49 45 45 45 42 37 36 37 36 35 34 33 32 34 36 36 33 30 29 32 35 38 37 36 34 33 32 31 30 28 27 26 25 25
96 95 93 91 89 87 85 84 82 80 78 75 73 70 68 66 64 62 60 58 56 55 53 51 49 46 45 48 52 51 46 44 44 44 42 41 40 38 36 35 36 37 37 40 42 42 40 38 38 38 38 38 38 37 36 34 33 31 29 28 27 26 26
99 98 96 94 93 90 88 87 85 83 81 79 76 74 71 69 67 65 63 61 59 57 55 53 51 50 48 48 51 53 50 46 44 44 45 46 44 41 38 38 40 41 42 44 45 45 45 43 40 38 36 36 37 38 38 37 34 33 31 30 28 27 28
101 100 99 97 95 93 92 90 88 86 84 82 80 77 74 72 70 68 67 65 62 60 59 57 54 53 52 52 53 53 52 49 47 46 47 48 47 44 41 41 43 45 45 45 46 47 45 42 39 35 33 32 33 34 35 36 35 34 33 32 30 29 29
102 102 101 99 98 97 95 93 91 89 87 85 83 81 78 75 73 71 70 68 66 64 62 60 58 57 56 55 55 55 55 54 51 50 49 49 48 47 45 44 45 46 47 47 48 48 47 45 41 37 34 31 30 30 31 32 33 34 34 32 31 31 31
104 103 103 101 100 99 98 96 94 92 90 88 86 84 81 79 77 74 73 71 70 68 66 64 62 61 59 59 57 57 58 59 57 55 54 52 50 47 46 45 47 47 47 48 48 47 47 45 42 39 36 33 30 29 29 30 31 32 33 31 30 31 30
106 105 104 103 102 101 100 98 97 95 93 91 90 87 85 82 80 78 76 74 73 72 70 68 66 64 63 62 61 59 59 61 61 59 58 57 54 50 48 47 47 47 48 49 49 48 47 46 44 43 40 35 32 30 28 29 30 31 31 30 29 29 30
108 107 106 105 104 103 102 101 100 98 96 95 93 91 89 86 84 81 79 77 75 74 73 72 70 69 67 65 64 63 61 62 63 63 62 60 57 54 52 51 50 49 49 50 50 49 48 47 47 46 42 37 34 32 28 27 29 30 30 29 28 29 30
111 110 108 107 106 105 104 103 102 101 99 97 96 94 92 90 87 85 82 80 78 77 76 75 74 72 71 69 67 66 65 63 63 64 66 66 63 59 57 55 55 55 55 54 51 49 49 48 47 46 44 40 35 31 27 26 26 27 29 29 29 29 31
114 112 111 110 109 107 106 105 104 103 102 100 98 97 95 93 91 88 86 84 81 79 78 78 77 75 74 73 71 70 69 68 66 65 66 67 67 65 62 59 59 60 61 59 56 51 49 47 46 47 46 41 34 28 25 25 25 29 33 34 32 32 33
117 115 114 113 111 110 109 108 107 106 104 103 101 99 97 95 93 92 90 87 85 83 81 80 79 78 78 77 75 74 72 71 70 69 67 67 67 67 66 65 63 63 63 62 60 56 52 48 47 47 46 43 39 38 38 37 39 44 47 42 37 35 35
119 118 117 116 115 113 112 111 110 108 107 106 104 102 100 98 97 95 93 91 88 86 84 83 81 81 80 80 79 78 76 75 74 73 71 69 68 67 68 68 68 67 67 65 63 60 56 52 49 48 48 47 47 50 52 51 52 56 54 45 39 38 37
121 121 120 120 118 117 115 114 112 111 110 109 107 105 103 101 100 98 96 95 92 89 88 86 84 83 83 83 82 81 80 79 78 77 75 74 72 70 69 69 70 70 70 69 67 63 60 58 53 51 51 52 53 55 56 54 54 56 53 46 41 40 39
123 123 123 122 121 120 119 117 116 115 113 112 110 108 106 105 103 102 100 98 96 93 90 89 88 86 85 85 85 84 84 83 82 80 79 78 76 74 72 70 70 71 72 72 71 68 65 63 59 55 54 55 56 58 59 56 55 56 54 49 45 43 42
124 124 124 124 124 123 122 121 120 118 117 115 114 112 110 108 107 105 104 102 99 97 94 92 90 89 88 87 87 87 86 86 85 84 83 81 80 78 76 74 72 72 72 74 74 73 70 68 64 61 59 58 58 60 61 58 57 58 56 53 50 47 45
124 125 125 126 126 125 125 124 123 122 120 119 118 116 114 113 111 109 107 105 103 101 98 95 93 92 91 90 89 89 89 88 88 87 86 85 84 82 80 78 76 74 73 74 76 76 74 72 69 66 64 62 61 61 61 61 60 59 58 56 52 49 46
125 126 126 127 127 127 127 127 126 125 124 123 122 120 118 117 115 113 111 109 107 105 102 99 97 95 94 93 92 91 91 90 90 90 89 88 87 85 83 82 80 78 76 75 76 77 77 75 73 71 69 66 64 63 63 63 63 62 59 57 55 52 48
Wind_Direction
238 237 238 239 242 248 254 258 260 261 263 262 260 264 267 266 274 278 268 265 267 262 254 244 239 239 238 234 232 230 225 222 221 219 217 210 197 195 192 176 166 155 134 116 101 85 63 36 51 73 74 76 85 87 85 80 75 68 64 63 59 59 60
239 237 238 241 244 248 252 255 259 261 259 257 258 263 263 261 268 269 258 256 261 260 255 248 240 238 239 234 229 229 227 224 223 223 221 216 207 201 194 186 177 171 152 129 116 102 80 37 15 47 69 69 73 77 77 69 63 61 57 56 52 52 55
242 240 239 241 243 246 249 253 259 261 254 254 257 256 254 259 266 263 253 254 261 264 258 249 241 237 238 237 229 226 228 226 224 225 224 220 217 211 203 200 198 199 196 158 132 121 106 57 354 332 21 60 64 68 67 55 46 52 56 53 47 44 46
243 242 241 240 241 243 245 248 249 248 249 254 256 253 254 261 263 261 256 257 264 267 258 248 243 240 237 236 230 222 224 226 224 225 225 224 224 221 215 213 215 219 232 230 166 135 128 85 325 312 306 332 28 51 40 15 3 18 37 42 35 28 27
242 243 243 242 241 241 242 241 238 239 245 249 250 247 247 254 256 256 255 251 253 260 257 249 246 244 240 236 231 222 218 220 222 223 224 225 226 226 224 221 221 225 235 248 252 233 195 296 304 302 298 301 300 303 314 317 320 325 332 346 355 360 2
242 243 243 243 242 241 241 239 238 240 241 244 245 235 227 236 245 246 246 240 239 246 250 248 246 246 244 238 234 229 221 217 217 218 221 223 225 226 227 226 226 231 237 244 257 272 290 301 298 294 294 297 298 293 291 300 309 314 319 327 337 345 351
241 243 243 243 242 240 240 239 240 241 240 242 243 233 225 228 230 229 229 231 237 240 241 242 242 241 240 238 236 234 229 223 218 216 217 219 221 224 226 227 228 232 238 242 252 268 280 289 293 295 291 288 293 293 291 292 300 308 317 324 334 345 351
241 242 243 243 242 241 241 240 239 239 239 241 238 232 232 232 220 211 214 225 237 240 238 240 239 236 237 238 236 234 233 231 225 220 219 219 220 223 225 227 228 230 237 243 250 261 270 278 284 289 291 288 285 286 287 288 292 300 310 319 329 339 348
240 242 242 242 242 241 242 241 240 239 239 240 236 230 235 233 217 207 212 225 236 239 237 236 235 236 237 236 234 233 231 231 230 226 223 222 223 224 226 228 230 232 236 242 251 259 266 273 278 282 286 287 286 283 282 284 288 294 301 310 319 329 340
240 241 242 242 242 242 241 241 241 240 238 238 234 227 229 229 221 218 222 226 227 231 239 241 237 237 237 233 232 231 229 228 228 227 225 223 224 226 227 229 232 235 237 241 250 259 265 269 273 278 280 281 281 279 278 280 284 289 294 301 309 319 330
239 240 241 242 241 241 241 241 241 240 238 236 232 225 220 220 220 217 219 223 218 216 232 241 239 236 234 231 229 230 230 228 228 227 225 223 224 226 228 230 233 236 238 242 248 256 262 266 269 272 274 273 272 272 273 276 279 284 288 294 301 310 322
238 239 239 240 240 240 240 240 240 239 237 234 231 225 219 217 218 215 214 220 223 223 228 233 233 232 228 226 227 228 229 229 231 231 228 226 226 226 227 230 232 235 239 242 247 251 256 261 264 266 267 265 263 263 267 270 273 277 281 286 293 301 313
237 238 238 239 239 239 239 239 238 237 236 234 231 227 223 221 222 222 221 222 224 229 230 228 228 227 223 221 224 226 227 228 231 234 234 232 231 229 228 230 231 234 237 240 244 247 251 255 258 260 261 260 257 256 258 263 266 270 274 279 286 293 303
238 239 239 238 238 238 238 238 237 236 235 233 231 229 227 224 223 222 223 222 222 226 228 226 224 222 218 218 221 221 224 227 229 232 236 237 237 236 235 234 233 235 236 239 241 243 246 250 253 255 256 255 253 252 253 256 260 263 268 273 278 284 292
238 239 239 239 238 238 237 237 237 236 235 234 232 230 228 227 225 222 222 222 222 224 227 227 227 224 218 216 217 218 221 224 225 228 232 236 239 241 242 241 241 240 239 240 240 241 243 245 248 250 251 251 250 249 249 251 254 258 261 266 270 275 280
236 237 238 239 238 238 237 237 238 237 236 235 234 232 230 228 227 224 223 223 223 223 226 227 229 228 222 216 215 216 217 219 221 225 230 234 237 240 242 245 247 247 248 247 244 241 240 240 242 243 245 246 246 245 246 247 249 252 255 258 262 266 270
235 236 237 238 238 238 237 237 237 238 237 236 235 233 232 230 228 227 226 225 225 224 226 226 227 226 223 217 213 212 214 216 218 222 226 230 233 237 241 247 251 252 252 253 252 248 243 239 238 238 239 240 241 241 243 244 245 248 250 253 256 259 262
234 235 236 237 238 238 238 237 236 236 236 236 236 235 233 231 230 228 227 227 226 226 226 226 224 222 219 216 213 212 213 214 214 218 222 223 225 228 231 241 253 259 258 257 256 254 249 244 240 238 237 237 238 238 239 240 242 244 247 249 251 254 257
232 234 235 236 237 237 238 237 236 235 235 235 235 235 234 232 231 229 228 228 227 226 226 226 224 221 218 215 213 214 215 214 215 220 222 221 220 219 217 219 229 246 261 267 265 260 255 249 244 241 241 239 238 238 237 237 238 240 243 246 248 250 253
231 232 233 234 235 236 237 238 237 236 235 234 233 233 233 233 231 230 229 229 228 227 226 225 224 223 219 214 212 215 216 214 216 221 222 222 224 223 219 214 212 217 230 251 266 268 263 257 250 244 242 242 241 240 239 239 238 238 240 243 245 248 251
231 232 232 233 234 235 236 237 238 237 236 235 233 233 233 233 232 230 230 229 229 229 227 225 224 223 220 215 213 216 219 218 218 219 219 221 227 227 224 220 216 211 211 220 238 255 264 267 262 252 245 242 240 241 242 242 241 239 239 242 244 247 249
232 232 233 233 233 234 235 236 237 238 237 236 235 233 233 233 232 231 230 229 229 229 228 226 225 224 221 217 215 218 221 222 222 221 219 220 225 227 224 223 222 215 210 212 218 226 240 252 256 255 251 246 241 239 240 241 242 242 242 243 246 247 249
233 233 233 234 234 234 235 236 237 237 238 237 236 234 233 233 232 232 231 229 228 228 228 226 225 224 221 219 219 220 222 224 225 225 223 224 227 228 225 225 224 221 218 218 216 215 219 224 231 239 245 246 243 241 239 239 240 241 243 243 245 248 250
233 234 234 234 235 235 235 236 237 237 238 238 238 236 234 233 232 232 232 231 229 228 227 226 225 223 221 218 219 220 220 221 223 223 224 226 228 228 225 225 226 224 224 224 221 218 217 220 225 230 235 240 243 243 242 241 239 239 240 241 241 245 249
233 234 234 235 235 235 236 236 237 238 238 239 239 238 237 235 233 232 232 232 230 228 227 226 224 223 222 221 220 219 218 218 219 219 220 223 226 227 228 229 229 228 227 227 225 223 223 224 226 228 232 239 243 244 245 246 243 240 240 239 237 239 243
233 234 234 235 235 235 236 236 237 238 238 239 239 239 239 237 235 233 232 232 231 230 228 226 224 223 223 223 223 220 218 218 218 217 217 219 223 228 232 235 234 233 231 230 228 227 228 229 228 227 230 237 242 244 245 247 247 245 242 240 237 237 238
232 233 233 234 234 235 236 236 237 237 238 238 239 239 239 238 237 235 233 232 231 231 229 227 225 223 223 224 224 223 221 220 219 216 214 216 220 226 232 236 237 237 236 234 233 232 231 232 232 230 231 233 237 241 243 244 246 247 245 242 239 238 238
232 233 233 233 234 234 235 236 236 236 237 237 238 239 239 238 238 237 235 233 232 231 230 229 227 225 223 223 224 224 223 222 221 218 214 214 219 223 227 231 235 238 239 237 236 235 235 235 234 233 233 232 233 238 243 245 246 247 246 243 239 238 238
232 233 233 233 234 234 234 235 235 236 236 236 237 238 238 238 238 237 236 234 232 231 230 230 229 227 225 223 223 224 224 224 224 221 217 216 219 222 226 229 230 234 237 237 235 234 235 235 234 234 234 232 232 235 242 247 250 250 248 243 239 237 237
232 232 233 233 233 234 234 234 234 235 236 236 236 236 237 238 237 237 236 235 234 232 230 230 230 229 227 225 223 224 225 225 225 225 223 222 222 223 226 229 230 232 236 236 234 233 233 233 233 232 232 232 232 234 241 249 254 256 253 247 239 235 235
232 232 233 233 233 234 234 234 234 234 235 235 235 236 236 237 237 237 237 236 235 233 231 230 229 229 228 227 225 224 224 225 225 226 226 226 226 224 225 227 229 231 234 236 236 234 232 231 232 231 231 231 229 231 240 249 252 252 250 245 237 232 232
232 232 233 233 234 234 234 234 234 234 235 235 235 235 235 236 236 236 236 236 235 234 233 231 229 229 229 228 227 225 225 225 226 226 226 227 227 226 225 226 228 230 232 234 236 236 235 233 232 232 231 228 225 228 234 237 239 241 241 237 231 228 229
232 232 232 233 233 234 234 235 235 235 235 235 235 235 235 235 235 235 236 236 235 234 233 232 231 229 228 228 228 227 226 225 225 226 226 227 227 227 226 226 227 229 231 233 235 236 237 236 233 233 231 228 226 229 231 232 233 236 237 235 230 227 227
231 232 232 233 233 234 234 235 235 235 236 236 236 235 235 235 235 235 235 235 235 234 233 233 232 230 229 228 228 228 227 226 226 226 226 226 227 227 227 226 226 228 230 233 234 235 236 235 233 232 232 230 229 231 232 232 233 236 237 235 231 227 227
231 231 232 233 233 233 234 234 235 236 236 236 236 236 236 235 235 235 235 235 235 234 233 232 232 231 230 229 228 227 227 227 226 226 226 226 226 227 227 227 226 226 228 230 232 233 234 234 233 232 231 231 232 233 234 234 235 237 237 234 232 231 231
230 231 232 233 233 233 233 233 234 235 236 236 237 237 236 236 235 235 235 235 235 234 233 232 231 231 230 229 228 227 227 227 227 226 226 226 226 226 227 227 227 226 226 228 230 231 232 233 234 233 232 232 233 235 236 235 235 237 238 235 234 235 234
231 231 232 232 233 233 233 233 234 234 235 236 236 237 237 237 236 236 235 235 235 235 234 233 232 231 231 230 229 228 227 227 227 227 226 226 226 226 226 227 227 226 226 226 228 229 230 232 232 233 233 233 234 235 236 236 235 237 239 236 235 235 232
232 232 232 232 233 233 234 234 234 234 234 235 236 236 237 237 237 237 236 236 236 235 235 234 233 232 231 231 230 229 228 227 227 227 227 226 226 226 226 226 227 226 226 226 226 228 229 230 231 231 232 233 234 234 235 235 236 237 238 235 233 232 229
Height
10995 10999 11001 11003 11005 11005 11008 11010 11012 11013 11014 11014 11014 11013 11013 11014 11014 11016 11016 11017 11018 11018 11019 11020 11021 11022 11023 11025 11026 11028 11030 11031 11032 11033 11034 11034 11034 11035 11036 11036 11037 11037 11037 11037 11037 11038 11038 11038 11038 11038 11037 11037 11036 11036 11036 11036 11035 11035 11034 11034 11033 11032 11032
10988 10994 10997 10998 11000 11002 11004 11007 11009 11010 11011 11011 11011 11010 11011 11012 11013 11014 11014 11015 11016 11016 11018 11018 11019 11021 11021 11023 11024 11026 11029 11030 11032 11033 11034 11034 11034 11035 11036 11037 11037 11038 11038 11038 11038 11038 11039 11039 11039 11039 11038 11038 11037 11037 11037 11037 11036 11036 11035 11034 11034 11033 11033
10981 10987 10991 10993 10997 10999 11001 11005 11006 11006 11005 11006 11008 11008 11009 11010 11011 11012 11013 11013 11014 11016 11016 11017 11017 11018 11019 11021 11022 11024 11027 11029 11031 11032 11033 11034 11034 11035 11036 11036 11038 11038 11039 11039 11038 11038 11039 11039 11040 11040 11039 11039 11038 11038 11038 11037 11037 11036 11036 11035 11035 11034 11033
10974 10979 10984 10988 10993 10997 11001 11004 11006 11004 11001 11001 11005 11007 11008 11009 11009 11011 11012 11012 11013 11014 11014 11015 11016 11015 11017 11019 11020 11021 11024 11026 11029 11030 11032 11033 11033 11034 11035 11036 11037 11038 11039 11039 11039 11039 11039 11040 11040 11040 11040 11039 11039 11039 11038 11038 11038 11037 11037 11036 11036 11035 11034
10968 10972 10976 10982 10989 10994 10998 11002 11003 11003 11000 11000 11004 11007 11007 11006 11006 11007 11009 11010 11011 11012 11013 11012 11012 11013 11015 11017 11017 11018 11020 11022 11025 11027 11029 11031 11032 11033 11034 11035 11036 11037 11038 11039 11039 11039 11039 11040 11040 11040 11040 11040 11040 11039 11039 11039 11039 11038 11038 11037 11037 11036 11035
10962 10965 10969 10976 10982 10987 10991 10994 10996 10997 10997 10998 11001 11003 11002 11002 11003 11004 11006 11007 11009 11012 11012 11010 11010 11012 11014 11016 11016 11016 11016 11018 11020 11023 11025 11027 11029 11031 11032 11034 11035 11036 11037 11038 11038 11039 11039 11040 11040 11040 11040 11040 11040 11040 11040 11039 11039 11039 11039 11038 11038 11037 11036
10955 10958 10963 10969 10975 10979 10983 10986 10989 10990 10992 10995 10998 10999 10999 10999 10999 10999 11003 11006 11009 11013 11014 11012 11011 11013 11013 11014 11015 11016 11016 11016 11017 11019 11020 11023 11025 11027 11029 11031 11033 11034 11035 11036 11037 11038 11039 11039 11040 11040 11040 11040 11040 11040 11040 11040 11039 11039 11039 11039 11038 11037 11037
10949 10952 10956 10962 10968 10972 10975 10979 10982 10985 10987 10990 10994 10996 10997 10998 10997 10996 11001 11007 11010 11013 11014 11012 11010 11011 11011 11012 11014 11015 11016 11016 11017 11018 11019 11020 11022 11024 11026 11028 11030 11032 11033 11035 11036 11037 11038 11039 11039 11040 11040 11040 11040 11040 11040 11039 11039 11039 11039 11039 11038 11037 11037
10943 10946 10950 10956 10961 10965 10968 10972 10975 10980 10983 10985 10989 10992 10995 10996 10996 10996 11001 11007 11009 11010 11010 11009 11008 11007 11008 11010 11011 11012 11013 11014 11016 11018 11019 11020 11021 11022 11024 11026 11028 11029 11031 11033 11034 11035 11036 11037 11038 11039 11039 11039 11039 11039 11039 11039 11039 11039 11039 11038 11038 11037 11037
10936 10939 10943 10949 10954 10958 10962 10965 10969 10974 10978 10981 10986 10989 10990 10992 10993 10995 10998 11001 11003 11005 11004 11003 11004 11005 11005 11007 11008 11008 11009 11011 11013 11015 11017 11018 11020 11021 11022 11024 11026 11027 11029 11030 11032 11033 11034 11036 11037 11037 11038 11038 11039 11038 11038 11038 11038 11039 11038 11038 11037 11037 11036
10929 10933 10937 10942 10948 10952 10955 10959 10963 10967 10972 10976 10981 10984 10986 10987 10989 10993 10995 10993 10996 11001 11000 10998 10999 11001 11002 11003 11005 11005 11006 11008 11011 11013 11014 11016 11017 11019 11020 11022 11024 11025 11027 11028 11030 11031 11032 11033 11035 11036 11036 11037 11037 11037 11037 11037 11037 11038 11037 11037 11037 11036 11036
10922 10927 10931 10936 10941 10945 10949 10953 10957 10961 10966 10970 10975 10978 10981 10983 10986 10990 10992 10991 10991 10993 10994 10994 10995 10997 10998 10999 11001 11002 11004 11007 11009 11011 11013 11014 11015 11017 11018 11019 11021 11023 11024 11025 11027 11028 11029 11031 11032 11033 11034 11035 11035 11036 11036 11036 11036 11036 11036 11036 11036 11035 11035
10915 10920 10924 10929 10934 10938 10942 10947 10951 10955 10959 10963 10968 10971 10974 10978 10981 10984 10986 10987 10988 10986 10986 10989 10991 10992 10994 10995 10997 10999 11002 11005 11007 11010 11012 11013 11014 11015 11015 11017 11018 11020 11021 11023 11024 11025 11026 11028 11029 11031 11032 11032 11033 11034 11034 11034 11035 11035 11035 11035 11035 11034 11034
10908 10913 10918 10923 10927 10932 10936 10940 10944 10948 10952 10956 10961 10964 10968 10971 10975 10978 10980 10981 10983 10983 10983 10984 10986 10988 10990 10991 10994 10997 11000 11003 11005 11008 11010 11011 11013 11014 11014 11015 11016 11018 11019 11020 11021 11022 11024 11025 11027 11028 11029 11030 11030 11031 11032 11032 11033 11033 11033 11033 11033 11033 11033
10901 10906 10911 10916 10921 10926 10929 10933 10937 10942 10946 10950 10954 10958 10961 10964 10968 10971 10973 10975 10978 10979 10980 10981 10983 10984 10986 10988 10991 10994 10997 10999 11002 11005 11008 11009 11010 11012 11013 11014 11015 11016 11017 11018 11019 11020 11021 11022 11024 11025 11026 11027 11027 11028 11029 11030 11030 11031 11031 11032 11031 11031 11031
10894 10899 10903 10908 10914 10918 10923 10927 10931 10936 10940 10944 10948 10951 10955 10958 10961 10964 10966 10969 10972 10974 10976 10978 10980 10982 10984 10986 10988 10991 10994 10996 10999 11003 11006 11008 11008 11010 11011 11013 11014 11016 11016 11017 11017 11018 11019 11020 11020 11021 11023 11023 11024 11025 11026 11027 11027 11028 11029 11029 11029 11029 11030
10887 10891 10896 10901 10906 10911 10916 10921 10925 10929 10933 10937 10941 10945 10948 10952 10955 10958 10960 10963 10966 10968 10971 10973 10976 10979 10981 10983 10985 10988 10991 10994 10997 11001 11003 11004 11005 11007 11009 11011 11012 11013 11014 11015 11016 11016 11017 11018 11018 11019 11019 11020 11021 11021 11022 11023 11024 11025 11026 11027 11027 11027 11027
10879 10883 10888 10893 10898 10902 10908 10913 10918 10922 10926 10930 10934 10938 10942 10946 10949 10952 10955 10957 10960 10963 10965 10968 10971 10974 10976 10979 10983 10985 10988 10990 10994 10997 10998 11000 11001 11003 11005 11008 11010 11011 11012 11013 11014 11014 11015 11016 11016 11017 11017 11017 11018 11018 11019 11020 11021 11023 11023 11024 11024 11025 11025
10871 10875 10880 10885 10889 10894 10899 10904 10909 10914 10918 10923 10927 10931 10935 10939 10942 10945 10948 10951 10954 10957 10960 10963 10967 10969 10972 10975 10979 10982 10985 10988 10992 10993 10994 10996 10997 10998 10998 10999 11002 11007 11010 11011 11012 11012 11013 11013 11014 11014 11015 11015 11015 11015 11016 11018 11019 11020 11020 11021 11022 11022 11023
10861 10866 10871 10876 10880 10885 10890 10895 10900 10905 10910 10915 10919 10923 10927 10931 10935 10939 10942 10945 10948 10951 10955 10959 10961 10964 10967 10971 10975 10978 10981 10985 10988 10989 10991 10995 10996 10995 10993 10991 10992 10996 11001 11006 11009 11009 11009 11010 11011 11012 11012 11012 11012 11013 11014 11015 11016 11017 11017 11018 11019 11020 11021
10851 10856 10861 10866 10871 10876 10881 10886 10891 10896 10901 10906 10911 10915 10919 10923 10927 10931 10935 10939 10941 10945 10949 10953 10956 10959 10963 10968 10972 10975 10978 10981 10983 10984 10988 10992 10991 10990 10991 10990 10989 10988 10989 10994 10999 11002 11005 11008 11009 11009 11009 11009 11009 11010 11011 11012 11013 11014 11015 11016 11016 11017 11018
10841 10847 10851 10856 10862 10867 10872 10877 10882 10887 10892 10897 10902 10907 10911 10915 10919 10924 10928 10932 10935 10939 10943 10947 10951 10955 10959 10964 10968 10971 10974 10976 10978 10980 10983 10985 10984 10984 10986 10987 10987 10986 10982 10982 10985 10990 10996 11001 11004 11005 11005 11006 11006 11007 11007 11009 11010 11012 11013 11014 11015 11015 11015
10832 10837 10842 10847 10852 10857 10863 10868 10872 10877 10882 10887 10893 10898 10903 10907 10911 10916 10920 10924 10929 10933 10937 10941 10946 10950 10955 10959 10963 10965 10968 10971 10975 10978 10980 10979 10978 10980 10982 10983 10984 10982 10980 10977 10976 10978 10982 10986 10990 10994 10997 11000 11002 11003 11003 11005 11007 11009 11010 11011 11012 11013 11013
10823 10828 10833 10838 10843 10849 10854 10858 10863 10868 10873 10879 10884 10889 10894 10899 10904 10908 10912 10917 10922 10926 10931 10935 10940 10944 10948 10951 10953 10955 10958 10963 10968 10972 10974 10974 10975 10977 10978 10978 10977 10976 10976 10976 10976 10976 10978 10980 10984 10987 10991 10994 10996 10998 10999 11001 11003 11005 11006 11008 11009 11010 11010
10812 10817 10823 10828 10834 10840 10844 10848 10854 10859 10864 10870 10875 10880 10885 10890 10895 10900 10904 10909 10914 10919 10923 10928 10933 10937 10941 10942 10943 10946 10951 10955 10959 10963 10966 10968 10970 10972 10973 10972 10971 10971 10973 10974 10975 10977 10979 10982 10985 10987 10989 10991 10993 10994 10996 10998 11000 11001 11002 11003 11005 11006 11006
10801 10806 10812 10818 10824 10829 10833 10839 10845 10850 10855 10861 10865 10870 10876 10881 10886 10891 10896 10901 10905 10910 10915 10920 10925 10929 10933 10935 10937 10941 10945 10949 10952 10955 10959 10961 10963 10965 10966 10966 10966 10967 10969 10970 10972 10975 10977 10979 10982 10984 10986 10988 10990 10992 10994 10996 10998 10998 10999 11000 11001 11002 11002
10788 10794 10800 10806 10813 10817 10822 10829 10835 10840 10845 10850 10855 10860 10866 10871 10876 10882 10887 10892 10897 10901 10906 10912 10917 10922 10925 10928 10931 10935 10938 10941 10944 10947 10950 10952 10954 10956 10958 10959 10960 10962 10965 10967 10969 10972 10974 10976 10979 10981 10983 10985 10987 10989 10991 10993 10995 10996 10997 10998 10999 10999 10999
10777 10782 10788 10795 10801 10806 10812 10819 10824 10829 10834 10840 10844 10850 10856 10861 10866 10871 10877 10882 10887 10893 10898 10902 10908 10913 10917 10920 10924 10927 10931 10934 10936 10940 10943 10945 10946 10948 10949 10951 10953 10956 10959 10960 10963 10966 10969 10972 10975 10978 10980 10982 10984 10986 10988 10989 10991 10993 10995 10996 10997 10997 10998
10765 10770 10776 10783 10788 10795 10801 10807 10812 10817 10823 10828 10834 10839 10845 10850 10856 10861 10866 10872 10877 10883 10888 10893 10898 10903 10908 10912 10916 10919 10922 10926 10929 10933 10936 10939 10941 10942 10942 10944 10947 10949 10950 10951 10955 10960 10962 10966 10970 10973 10976 10979 10981 10984 10986 10988 10989 10991 10992 10993 10994 10995 10995
10752 10757 10763 10769 10776 10782 10788 10794 10799 10805 10810 10816 10822 10828 10833 10839 10845 10850 10856 10861 10867 10873 10878 10884 10889 10894 10899 10903 10907 10911 10914 10917 10921 10924 10928 10931 10934 10936 10938 10940 10943 10944 10944 10946 10949 10953 10956 10960 10964 10968 10972 10975 10978 10982 10984 10986 10988 10990 10991 10991 10990 10990 10990
10738 10744 10750 10756 10762 10769 10774 10780 10786 10791 10797 10803 10810 10816 10822 10828 10834 10840 10845 10850 10856 10862 10867 10873 10878 10884 10889 10893 10898 10902 10906 10909 10912 10916 10919 10923 10926 10930 10932 10935 10938 10939 10940 10942 10945 10948 10952 10955 10960 10963 10967 10971 10976 10980 10983 10986 10988 10988 10985 10983 10983 10984 10984
10724 10731 10737 10743 10748 10755 10760 10766 10772 10778 10784 10790 10797 10804 10810 10816 10822 10828 10833 10838 10844 10850 10856 10862 10868 10873 10878 10883 10888 10893 10897 10900 10904 10907 10911 10914 10918 10922 10925 10929 10932 10934 10935 10937 10940 10943 10947 10951 10955 10958 10962 10967 10969 10971 10973 10976 10975 10971 10969 10970 10974 10976 10977
10711 10717 10724 10729 10734 10741 10747 10753 10759 10765 10770 10777 10784 10791 10798 10804 10810 10815 10820 10826 10832 10839 10844 10850 10856 10862 10867 10872 10877 10882 10887 10891 10894 10898 10902 10905 10909 10913 10917 10921 10924 10927 10929 10931 10934 10938 10941 10945 10950 10954 10957 10959 10959 10956 10956 10957 10956 10954 10957 10964 10969 10970 10971
10697 10703 10709 10715 10721 10728 10734 10739 10745 10751 10757 10763 10770 10778 10785 10791 10797 10802 10807 10813 10819 10826 10832 10838 10844 10850 10855 10860 10866 10871 10875 10880 10884 10888 10892 10896 10900 10904 10908 10912 10916 10919 10922 10924 10927 10931 10934 10937 10942 10947 10949 10951 10950 10948 10948 10949 10950 10951 10955 10961 10964 10965 10966
10683 10689 10694 10701 10708 10714 10720 10726 10731 10737 10743 10750 10756 10763 10771 10778 10783 10788 10794 10799 10806 10812 10820 10826 10831 10837 10843 10848 10854 10859 10864 10869 10874 10878 10882 10887 10891 10895 10899 10903 10906 10910 10913 10916 10919 10922 10926 10929 10934 10938 10940 10942 10942 10942 10943 10946 10948 10948 10951 10955 10958 10960 10962
10670 10675 10681 10687 10693 10700 10706 10711 10717 10723 10729 10735 10741 10748 10755 10762 10769 10774 10780 10786 10793 10799 10807 10814 10819 10825 10830 10835 10841 10847 10852 10857 10862 10867 10872 10877 10881 10885 10889 10893 10897 10901 10904 10907 10910 10913 10917 10921 10925 10928 10931 10933 10934 10934 10936 10939 10941 10942 10945 10950 10953 10955 10958
10655 10661 10667 10672 10678 10684 10690 10696 10702 10709 10714 10720 10726 10732 10739 10746 10753 10759 10766 10772 10779 10786 10794 10801 10807 10813 10818 10823 10828 10834 10840 10845 10851 10856 10861 10866 10870 10875 10880 10883 10887 10891 10895 10898 10901 10904 10908 10912 10916 10919 10923 10925 10926 10927 10929 10932 10934 10936 10939 10944 10948 10950 10954
10640 10646 10652 10657 10662 10668 10674 10680 10687 10694 10700 10705 10711 10717 10723 10730 10736 10743 10750 10758 10765 10772 10780 10787 10794 10800 10805 10810 10816 10822 10827 10833 10839 10844 10849 10854 10859 10864 10869 10873 10877 10881 10885 10888 10892 10895 10899 10903 10907 10910 10914 10917 10919 10920 10922 10924 10927 10929 10933 10937 10941 10945 10949